Wind_Speed
31 31 29 28 27 26 25 25 23 22 23 23 23 22 21 19 16 14 13 12 12 10 8 7 9 11 13 16 17 17 16 13 9 9 13 18 23 29 32 34 34 32 30 28 28 27 27 26 26 26 25 24 24 23 22 21 21 20 20 21 21 22 23
35 34 31 30 29 27 27 27 25 23 23 23 25 24 22 20 19 17 15 13 14 13 10 7 7 8 10 12 14 15 14 12 9 8 11 16 23 29 32 33 33 31 29 27 27 26 26 25 25 24 24 23 22 21 20 19 19 18 18 19 19 19 20
37 37 35 33 32 30 30 29 27 24 22 22 24 25 23 22 22 19 16 15 15 15 13 11 9 8 8 9 10 12 12 11 9 8 10 15 21 26 30 32 32 30 28 27 26 25 25 24 24 23 22 21 20 19 18 17 17 17 17 17 17 17 17
38 36 37 36 33 31 30 30 27 25 23 22 23 24 25 25 23 22 19 17 17 17 15 13 11 9 9 9 9 8 9 9 7 6 8 13 19 24 28 30 31 29 27 26 25 24 24 23 22 21 20 19 18 17 16 15 15 15 15 14 14 15 15
41 39 39 39 36 33 34 32 28 25 25 24 23 24 26 26 25 24 22 20 19 18 17 15 13 12 11 10 10 8 7 7 6 3 6 11 17 23 26 28 29 28 27 26 25 24 23 22 21 20 19 18 17 16 15 13 13 12 12 12 12 12 12
47 43 41 41 39 38 39 37 32 28 25 26 27 26 26 27 27 26 24 22 21 20 18 16 14 14 13 10 9 8 7 6 6 4 1 7 15 21 26 27 28 28 27 25 24 24 23 22 21 20 19 17 16 15 13 12 11 10 9 9 9 9 9
51 44 40 40 40 40 41 39 36 33 28 25 28 29 29 28 28 27 25 23 22 21 20 18 17 16 15 13 11 9 7 6 5 5 4 2 9 16 23 25 26 26 26 24 23 23 23 22 22 21 20 18 16 15 13 12 11 9 8 7 6 6 5
54 45 39 37 36 37 40 38 36 35 33 29 28 30 30 29 29 29 28 26 24 22 21 20 19 19 18 17 14 11 9 8 5 4 4 4 6 12 18 23 24 24 24 23 21 20 20 20 20 20 20 19 18 16 15 13 12 10 9 7 6 4 3
60 51 42 37 33 34 38 39 37 36 36 34 32 30 30 29 29 30 30 28 27 25 23 21 21 21 20 20 18 15 12 10 9 7 6 6 8 11 16 21 24 25 24 23 21 20 19 19 19 19 19 19 18 18 17 16 14 13 12 10 8 6 4
67 60 51 42 37 37 39 41 40 39 39 39 37 34 30 27 27 30 31 30 30 29 27 26 25 25 23 23 22 19 16 14 13 12 9 8 9 11 14 19 23 25 25 24 22 22 21 21 21 20 19 18 18 18 18 18 17 16 15 13 11 9 7
71 67 60 51 44 43 45 45 43 42 41 41 41 38 33 30 31 34 34 33 32 33 32 30 29 26 23 24 26 24 21 18 16 15 14 12 12 12 14 17 21 24 25 25 24 23 23 22 22 21 21 20 20 20 19 19 18 18 17 15 14 12 11
73 71 65 59 52 47 47 47 46 45 43 41 40 39 38 36 38 39 39 37 36 35 35 35 32 26 21 22 27 28 26 22 20 19 18 17 16 15 15 18 21 23 25 25 26 25 24 23 22 22 22 22 22 22 22 21 21 20 19 18 17 15 15
72 72 69 64 59 54 49 47 47 48 47 45 41 39 41 43 44 43 44 44 42 38 38 39 37 32 25 22 25 31 32 28 24 24 23 22 21 19 18 19 21 23 25 26 27 27 27 25 24 24 24 24 24 24 24 24 23 22 21 20 19 18 18
68 71 71 69 66 62 56 50 48 48 48 48 46 44 44 46 45 44 45 47 46 42 40 41 41 39 34 27 26 33 36 33 30 29 27 26 26 25 23 22 23 24 25 27 29 29 29 28 27 27 27 26 26 26 25 25 24 24 23 22 22 21 20
66 68 70 70 69 68 64 56 51 49 48 49 49 49 47 47 46 45 44 46 48 46 43 41 42 43 41 34 31 36 39 36 35 35 33 30 30 29 28 27 26 26 26 27 28 30 30 30 30 30 29 29 29 29 28 27 26 25 24 24 25 24 23
65 66 67 69 69 69 67 62 56 53 51 50 51 52 51 49 48 47 45 45 47 48 46 43 41 43 45 42 38 41 44 42 41 40 37 35 33 32 31 31 30 29 28 28 29 30 31 31 31 31 31 31 31 31 30 28 28 27 26 26 26 25 25
65 66 67 67 67 68 68 66 61 57 55 55 54 55 56 55 52 50 47 45 45 46 47 46 42 41 44 46 43 41 44 45 43 41 41 40 38 36 35 34 34 33 32 31 30 31 31 31 32 32 32 32 32 32 31 30 29 28 28 27 27 26 26
65 66 67 67 67 67 68 69 67 61 59 59 57 56 58 61 61 58 53 50 48 46 46 48 49 47 48 49 46 42 43 45 43 41 42 43 42 41 40 38 38 37 37 36 34 33 33 32 32 33 32 32 33 34 32 31 30 30 30 29 28 27 28
65 66 67 67 68 69 69 71 71 67 62 61 59 57 57 60 63 63 60 56 54 52 49 49 53 55 54 53 49 44 41 42 42 43 44 45 45 44 43 43 42 42 41 40 39 38 36 34 33 33 33 33 34 34 33 32 31 31 31 31 30 29 30
65 66 67 67 68 70 70 72 74 73 68 65 63 59 57 59 61 63 62 60 58 57 56 54 55 57 57 56 52 47 43 41 41 43 45 46 47 47 46 45 45 46 45 43 42 41 40 38 35 34 34 35 34 33 34 34 32 31 32 32 30 29 30
63 66 68 68 68 69 71 71 74 76 76 72 68 64 61 60 62 65 65 64 62 61 61 61 60 59 60 60 58 55 53 52 50 49 49 48 48 48 48 48 48 49 49 47 45 44 43 41 39 38 38 37 35 33 35 35 34 33 32 32 31 30 30
61 64 68 70 70 70 71 72 73 76 79 79 74 70 66 64 65 67 68 68 67 66 65 65 65 64 64 64 63 62 60 59 59 58 56 53 50 49 49 50 52 52 52 51 49 47 46 44 43 42 41 41 40 38 37 37 36 34 33 33 33 33 32
59 62 65 69 71 72 72 72 73 76 79 82 82 79 75 71 69 69 70 70 70 70 69 68 68 68 67 66 66 65 63 61 60 60 58 55 52 52 53 54 55 55 55 54 52 51 49 47 46 45 44 44 44 43 41 40 39 38 37 37 37 36 35
58 61 63 66 69 72 74 74 74 76 78 82 85 85 83 79 75 73 72 72 72 73 73 72 70 70 69 68 68 67 66 63 60 61 62 58 55 55 57 58 58 59 58 57 56 54 53 51 49 48 47 47 47 46 44 43 43 43 42 41 41 39 38
57 59 61 64 66 70 73 76 76 77 78 80 83 86 86 83 80 78 78 76 74 74 75 75 75 73 72 71 71 69 68 67 64 64 65 63 60 60 61 60 59 58 60 60 58 56 55 54 53 52 51 50 50 49 48 46 46 46 46 45 43 41 39
56 58 59 62 64 67 71 74 77 78 79 80 82 85 86 84 84 84 84 83 80 77 75 74 75 77 76 76 75 73 72 71 70 69 69 67 65 64 66 66 63 59 59 60 60 60 58 57 57 56 56 55 54 53 52 51 49 49 49 48 47 45 42
55 57 58 60 62 65 68 71 75 78 80 81 83 84 85 85 85 87 89 88 87 83 79 76 75 76 78 79 79 78 76 74 73 74 73 72 70 69 69 71 70 66 63 61 62 63 64 62 61 61 60 60 59 58 56 55 53 52 52 51 50 49 47
51 55 57 58 59 62 65 68 71 75 78 81 83 84 85 85 86 88 90 92 91 89 86 82 78 77 78 80 82 82 81 78 76 76 76 75 75 74 73 74 73 73 71 69 67 66 66 66 65 64 64 64 64 63 61 60 58 56 56 55 54 53 52
47 51 55 57 58 59 61 65 68 71 74 78 81 83 85 87 87 87 89 92 94 94 91 87 82 79 79 82 84 84 83 81 80 79 78 78 78 79 79 78 78 78 77 75 71 69 68 68 68 68 67 67 67 66 65 64 63 61 60 59 58 57 56
44 47 51 55 57 57 58 60 64 67 70 73 77 80 83 87 89 89 89 91 94 96 95 91 85 81 82 84 85 86 85 84 83 82 82 82 82 82 83 83 83 82 80 78 76 74 74 73 74 73 72 71 70 70 69 68 67 66 64 63 62 61 60
43 45 48 52 54 56 57 57 60 63 66 69 72 75 78 83 87 89 90 91 93 94 95 95 91 87 85 85 85 86 87 86 86 86 86 85 86 86 86 86 85 85 84 83 82 81 80 79 79 80 78 76 75 74 73 72 71 70 69 68 67 66 64
43 44 46 50 52 54 55 56 57 59 62 64 67 70 73 77 81 86 89 92 94 95 96 96 96 94 91 88 86 87 88 88 89 88 88 88 88 89 89 89 88 88 88 87 87 87 85 84 83 84 84 82 81 79 78 77 76 75 74 73 72 70 69
43 44 45 48 50 52 54 54 56 57 59 61 63 65 68 71 74 79 84 89 93 96 97 97 97 98 97 95 93 91 90 90 90 90 89 88 88 88 89 90 89 88 88 88 88 88 87 86 86 86 87 86 85 84 83 82 81 80 79 78 77 76 75
43 44 45 46 48 50 52 53 54 55 56 58 60 62 64 66 69 72 77 82 87 92 95 97 98 99 99 100 99 99 98 97 96 95 94 92 90 89 88 89 89 88 87 87 86 86 86 86 86 87 88 89 89 88 87 87 86 85 84 83 82 81 80
43 43 44 45 47 49 50 51 52 53 54 55 57 59 61 63 65 67 70 75 80 84 88 93 96 98 100 101 101 102 103 104 103 103 101 100 98 95 93 92 90 88 87 87 88 88 87 86 86 87 88 89 91 91 91 91 91 91 90 89 88 86 85
41 42 43 44 46 47 49 50 51 52 52 53 54 56 57 59 61 63 66 69 73 77 81 85 89 93 96 99 100 102 104 105 107 108 107 105 104 102 101 99 97 94 92 90 89 89 89 89 88 88 89 89 91 91 92 92 92 93 94 93 93 92 91
39 40 42 43 45 46 47 48 49 50 51 52 52 53 54 56 58 60 63 65 68 71 75 79 83 87 90 93 96 99 102 104 106 108 109 108 107 105 103 103 102 101 99 96 94 92 91 90 90 91 92 92 93 93 93 93 93 93 94 95 95 96 96
36 37 39 41 43 45 46 47 48 49 50 51 52 52 53 54 55 57 59 62 64 66 69 73 77 81 85 88 91 94 97 100 103 105 107 108 108 106 104 103 103 103 102 101 100 98 96 94 92 92 93 95 96 96 96 96 96 96 96 96 97 98 98
Wind_Direction
226 228 231 232 227 224 225 225 221 219 219 222 222 227 241 250 251 258 266 277 287 294 309 335 355 4 11 18 21 23 32 48 73 112 137 145 150 152 152 152 151 150 147 146 147 147 148 148 146 144 141 137 133 128 124 120 116 111 106 101 95 90 86
213 215 219 224 225 225 228 226 221 221 221 222 224 229 239 245 246 249 256 267 279 286 293 308 335 351 3 13 19 21 26 39 66 107 137 148 153 155 155 155 155 153 151 150 150 150 151 151 150 147 144 140 137 132 128 124 120 115 111 105 98 93 88
212 213 213 216 219 220 226 229 226 226 225 223 226 231 236 241 244 247 252 261 272 281 288 298 311 325 341 360 13 20 23 30 53 98 135 151 158 160 160 159 158 156 155 154 153 153 155 155 154 152 149 146 142 138 133 128 124 119 114 109 103 97 91
214 216 215 216 216 217 224 231 233 235 236 232 231 233 236 239 243 247 249 254 262 271 280 288 293 302 317 335 351 6 18 24 39 84 132 153 162 166 165 163 162 161 160 159 158 158 159 160 159 158 155 152 149 145 140 135 130 124 119 114 109 103 96
214 216 215 216 217 215 218 224 232 241 246 247 244 240 240 241 243 247 248 252 259 266 276 282 281 281 291 312 331 341 356 10 21 58 134 157 166 171 172 170 168 167 165 164 163 163 164 165 166 165 163 162 159 156 151 146 140 134 127 121 114 107 100
213 215 215 216 218 217 215 218 225 230 237 249 251 246 245 247 247 247 249 253 258 265 274 280 279 273 271 280 299 314 327 344 352 355 133 167 171 175 177 177 175 173 171 170 169 170 170 171 172 173 173 172 171 168 165 161 156 151 142 134 124 115 105
212 216 218 217 220 221 220 221 223 222 220 230 242 244 245 247 249 249 249 252 256 263 272 274 273 272 270 270 274 282 293 308 328 337 322 219 185 183 184 184 183 181 178 177 176 176 177 178 179 181 182 183 183 182 180 178 176 173 166 157 146 134 118
212 216 218 217 219 224 225 222 220 218 214 215 227 238 241 244 249 249 247 245 242 243 252 261 266 269 268 267 265 263 269 278 289 301 291 256 212 194 191 191 190 188 186 186 185 185 185 186 187 189 190 192 193 193 193 194 194 194 192 189 184 177 163
216 216 216 215 217 222 224 222 218 218 219 218 221 231 238 244 250 250 246 242 235 228 229 239 251 258 261 263 259 254 254 260 262 258 249 240 227 209 199 196 195 194 194 194 194 194 196 196 197 199 200 202 203 203 203 204 205 208 210 212 213 216 222
221 220 216 216 218 219 222 222 218 220 224 223 221 226 233 240 247 247 243 238 235 233 232 230 233 239 247 254 256 253 249 250 254 255 249 239 233 224 213 205 201 200 200 199 200 201 203 205 205 207 209 212 214 215 215 214 215 216 219 222 226 231 238
225 225 221 218 217 218 220 222 218 218 222 223 223 225 227 230 234 234 233 231 231 233 234 232 230 230 234 243 250 252 250 247 247 251 249 241 232 227 223 217 212 209 207 206 206 208 209 211 212 213 216 218 220 222 224 225 224 225 227 229 233 238 244
225 228 227 222 217 216 218 222 221 220 220 222 223 224 225 226 226 225 224 226 227 227 229 232 233 231 226 233 245 250 249 246 242 242 244 243 236 229 225 223 221 218 215 213 214 216 217 217 217 218 220 221 222 223 226 229 231 233 234 235 237 240 244
223 227 229 227 222 218 218 222 224 223 221 221 221 221 223 225 225 224 223 223 224 225 227 231 233 233 227 224 236 244 244 242 241 239 241 243 240 236 231 227 226 224 221 220 221 223 224 223 223 224 225 226 226 226 227 230 233 236 238 239 240 241 243
224 225 228 229 228 225 223 223 224 224 223 222 220 220 223 226 228 227 225 223 225 226 226 230 233 234 231 226 231 240 243 243 242 240 240 242 242 240 238 236 232 228 225 224 226 228 229 228 228 229 230 230 230 230 230 231 232 235 238 239 241 241 242
226 226 226 228 229 228 226 223 222 223 223 222 221 220 222 226 228 228 226 223 224 225 225 230 235 235 231 226 228 237 240 240 240 240 240 241 241 241 240 240 239 235 230 227 228 230 231 231 231 232 233 233 233 233 234 234 235 236 238 242 245 245 243
229 227 227 227 227 227 226 222 220 221 221 221 221 221 221 223 224 225 225 223 223 225 226 229 234 235 232 229 232 237 238 236 236 239 240 240 239 239 240 240 240 240 237 233 231 231 232 231 231 232 233 234 235 235 235 236 236 238 239 243 247 247 246
230 229 228 227 227 226 225 222 219 219 219 218 219 219 220 222 222 222 224 223 222 223 225 225 227 228 228 229 234 239 240 238 237 239 241 240 237 236 239 240 239 239 239 237 236 234 234 233 232 232 233 235 236 236 235 235 236 237 239 243 248 250 250
230 229 228 228 227 226 224 221 219 218 216 215 217 219 220 222 224 226 226 223 219 219 221 222 223 224 224 225 228 234 239 241 242 242 243 242 239 236 236 238 239 238 237 238 238 237 235 235 234 235 236 237 237 237 237 237 237 238 240 243 248 252 254
230 230 229 228 227 226 225 222 219 218 216 215 216 219 220 221 225 228 228 225 221 218 218 219 222 225 226 224 224 229 237 241 242 243 241 242 242 238 236 236 238 238 238 238 238 238 237 237 236 237 238 239 239 240 240 239 239 241 243 246 249 253 255
229 230 229 229 227 226 226 224 221 219 218 217 217 220 221 221 223 226 228 228 226 223 220 219 222 225 227 225 222 222 227 230 232 234 236 238 241 240 238 237 237 238 239 240 239 238 238 238 238 238 240 241 241 243 243 241 240 241 245 247 249 254 256
230 229 229 229 228 226 226 225 223 220 219 219 219 221 222 221 221 224 226 227 228 227 226 224 224 226 227 226 224 222 223 226 229 232 235 238 241 242 240 239 238 238 238 240 240 240 240 239 239 239 241 243 244 244 244 242 241 243 246 248 249 254 256
232 230 229 229 229 227 226 226 225 222 220 220 221 222 222 222 222 222 224 226 226 228 229 228 227 228 229 229 228 227 226 228 231 234 238 240 242 243 242 242 242 239 237 239 240 241 241 241 240 241 242 243 243 244 244 243 243 245 247 248 250 252 253
234 232 230 230 229 229 228 226 226 224 222 222 224 226 226 225 224 222 223 224 225 226 228 229 229 229 230 230 231 230 230 231 231 233 236 237 239 241 241 242 243 241 238 238 239 240 241 241 241 242 243 243 244 244 244 244 246 248 249 249 250 251 252
237 235 233 231 230 230 229 228 226 225 225 224 226 228 230 230 229 226 223 223 224 225 227 229 230 231 231 232 232 232 232 233 233 232 233 233 235 238 239 241 243 243 240 239 239 240 242 242 242 243 244 245 245 245 245 244 245 248 251 252 251 251 252
239 237 235 233 231 230 230 230 228 227 226 226 226 229 231 232 232 231 228 224 224 225 227 229 230 232 233 233 233 233 234 235 234 233 232 232 232 235 237 239 242 242 240 239 240 241 242 244 244 244 244 245 246 247 247 246 245 247 250 252 251 250 252
240 239 238 236 234 231 230 230 230 229 228 228 228 229 230 232 232 233 232 229 227 226 227 229 230 232 233 234 234 234 235 237 237 235 232 231 230 233 235 237 240 241 238 239 243 244 244 245 245 246 245 245 246 247 247 248 247 248 249 251 250 250 253
242 240 239 237 236 234 232 231 230 231 230 230 230 230 230 231 232 233 233 233 232 231 231 231 231 231 233 234 235 235 236 238 238 237 234 231 230 232 234 236 238 239 237 239 245 248 248 247 247 247 247 247 247 248 248 248 249 249 250 250 249 250 252
244 241 240 239 237 236 235 233 231 231 231 232 232 232 231 231 231 232 233 234 235 235 235 234 233 233 233 234 236 237 238 238 238 238 237 234 231 231 233 235 238 239 240 243 246 248 248 249 249 249 249 249 249 249 249 248 248 249 250 251 250 250 250
246 242 240 239 238 237 237 235 233 232 232 232 233 233 233 233 232 232 232 233 234 236 236 235 235 234 234 234 234 236 237 238 237 237 238 237 236 234 234 236 238 240 243 246 246 245 246 248 249 249 249 250 251 251 250 250 249 249 249 249 250 250 250
250 244 240 238 237 237 237 237 236 234 233 233 234 234 235 235 234 233 233 234 234 236 236 235 234 233 234 234 233 233 235 236 237 237 237 238 239 239 239 239 241 242 244 246 246 246 246 247 248 249 249 249 250 251 251 251 251 250 250 250 250 250 250
252 247 242 238 236 236 236 237 237 236 235 235 235 235 235 236 236 235 234 234 235 236 237 236 234 233 232 233 232 232 233 234 235 236 236 237 239 241 243 244 244 245 247 248 248 249 248 248 248 249 249 249 249 249 250 251 252 252 252 251 251 250 250
252 249 244 239 237 236 235 236 236 237 237 237 237 237 237 237 237 236 236 235 236 236 237 237 236 234 232 232 232 231 231 232 233 235 236 237 239 241 243 244 245 246 248 249 250 250 250 249 247 248 249 249 250 249 250 250 251 252 252 252 252 251 250
252 249 245 241 238 236 236 236 237 237 237 238 239 239 239 240 239 238 238 237 237 237 237 238 238 237 235 234 233 233 233 233 233 234 235 237 238 241 243 245 246 246 247 248 249 250 250 249 248 247 247 249 250 251 251 251 251 252 252 252 253 253 252
251 249 246 242 238 237 237 237 237 238 239 239 239 240 241 241 241 241 240 239 239 239 238 239 239 239 238 237 236 236 236 237 237 237 237 238 238 239 241 243 245 246 247 248 248 249 250 250 250 249 248 248 249 251 252 253 253 253 253 253 253 253 254
249 247 246 243 239 238 237 237 238 239 240 242 242 242 242 242 242 243 242 241 241 240 240 240 239 240 240 240 239 239 239 240 241 241 242 242 242 242 242 243 243 244 246 248 249 250 250 251 251 251 251 251 251 251 252 253 254 254 255 255 255 254 254
248 246 244 242 240 239 238 238 239 240 241 243 244 245 245 244 244 244 243 243 242 242 241 241 240 240 240 240 240 240 240 240 242 243 245 246 246 246 246 246 245 244 245 246 248 249 250 251 251 252 252 252 252 253 253 253 254 255 255 256 257 257 256
246 245 243 242 241 240 240 240 240 241 242 244 245 247 249 249 249 248 246 245 243 243 242 242 241 241 241 240 240 241 241 241 242 243 245 247 248 248 248 249 249 248 247 247 247 247 248 249 251 252 253 253 254 254 254 254 255 255 256 256 257 258 258
248 246 244 243 242 241 241 242 242 243 244 246 247 249 250 251 252 252 251 249 247 245 244 243 243 242 242 241 241 241 241 242 242 243 244 246 248 249 250 250 250 251 250 250 248 247 247 247 248 250 252 253 254 255 255 256 256 256 256 256 257 257 258
Height
10954 10957 10959 10962 10965 10967 10968 10970 10973 10975 10976 10978 10979 10979 10980 10982 10983 10984 10984 10984 10984 10983 10982 10981 10980 10979 10977 10976 10975 10974 10972 10971 10970 10969 10969 10969 10970 10970 10971 10972 10973 10974 10976 10977 10979 10981 10982 10983 10985 10986 10986 10987 10987 10988 10988 10989 10989 10989 10990 10990 10990 10990 10991
10947 10950 10953 10957 10960 10963 10965 10967 10970 10972 10974 10975 10976 10977 10979 10980 10981 10983 10983 10984 10984 10984 10983 10983 10982 10980 10979 10978 10977 10976 10975 10974 10973 10972 10972 10972 10972 10972 10973 10974 10975 10976 10978 10979 10981 10982 10984 10985 10986 10987 10988 10988 10989 10989 10989 10990 10990 10991 10991 10991 10991 10992 10992
10945 10947 10950 10952 10956 10960 10963 10965 10968 10970 10972 10974 10974 10976 10977 10979 10980 10981 10983 10983 10984 10984 10985 10985 10984 10982 10980 10979 10978 10978 10977 10976 10975 10975 10974 10974 10975 10975 10975 10976 10977 10978 10979 10981 10982 10983 10985 10986 10987 10988 10989 10989 10990 10990 10990 10991 10991 10992 10992 10992 10993 10993 10993
10945 10948 10950 10952 10956 10961 10964 10966 10967 10969 10970 10972 10974 10975 10975 10977 10978 10980 10981 10982 10982 10983 10985 10986 10985 10984 10982 10981 10979 10979 10978 10978 10977 10976 10976 10976 10976 10977 10977 10978 10978 10979 10980 10982 10983 10984 10986 10987 10988 10989 10990 10990 10991 10991 10992 10992 10992 10993 10993 10994 10994 10994 10994
10942 10944 10947 10951 10956 10960 10963 10965 10966 10968 10969 10971 10972 10974 10974 10975 10977 10978 10980 10981 10982 10983 10985 10985 10985 10984 10984 10983 10982 10981 10980 10979 10979 10978 10977 10977 10977 10978 10978 10979 10979 10980 10981 10982 10983 10985 10986 10987 10988 10989 10990 10991 10991 10992 10992 10993 10993 10994 10994 10994 10994 10995 10995
10936 10939 10943 10948 10951 10954 10957 10960 10962 10965 10968 10971 10971 10972 10973 10974 10975 10976 10978 10980 10981 10982 10983 10984 10984 10983 10983 10983 10983 10982 10982 10981 10980 10980 10979 10978 10978 10977 10978 10979 10979 10980 10981 10982 10983 10984 10985 10987 10988 10989 10990 10991 10991 10992 10992 10993 10993 10994 10994 10994 10995 10995 10995
10931 10934 10939 10945 10949 10951 10954 10957 10958 10960 10963 10966 10968 10969 10970 10971 10972 10974 10976 10977 10979 10979 10980 10981 10981 10982 10982 10982 10982 10982 10982 10982 10982 10981 10981 10980 10979 10979 10979 10979 10979 10980 10981 10982 10982 10983 10984 10985 10986 10988 10989 10990 10991 10991 10992 10993 10993 10994 10994 10994 10994 10995 10995
10927 10931 10936 10942 10947 10948 10949 10952 10954 10955 10957 10959 10961 10963 10965 10967 10969 10970 10972 10973 10973 10974 10975 10977 10979 10980 10981 10981 10981 10982 10982 10982 10982 10982 10982 10981 10981 10980 10980 10980 10981 10982 10982 10983 10984 10984 10985 10985 10986 10987 10987 10988 10989 10990 10991 10992 10992 10993 10993 10994 10994 10994 10995
10922 10927 10933 10939 10943 10943 10943 10945 10948 10951 10952 10954 10956 10957 10960 10964 10967 10968 10970 10970 10970 10969 10970 10972 10975 10976 10978 10979 10979 10980 10981 10981 10982 10982 10982 10981 10981 10980 10980 10980 10981 10981 10982 10983 10984 10985 10985 10986 10986 10987 10987 10988 10988 10988 10989 10990 10991 10992 10992 10993 10993 10994 10994
10916 10921 10928 10933 10936 10937 10936 10938 10942 10946 10947 10949 10951 10953 10957 10963 10967 10968 10968 10969 10969 10969 10969 10968 10968 10970 10974 10976 10977 10979 10980 10980 10981 10981 10981 10981 10981 10980 10980 10980 10979 10980 10980 10981 10982 10983 10983 10984 10985 10986 10987 10988 10988 10989 10989 10989 10989 10990 10991 10992 10993 10993 10994
10910 10914 10920 10926 10929 10930 10930 10931 10936 10940 10941 10944 10947 10950 10954 10958 10960 10961 10965 10967 10967 10967 10967 10966 10965 10966 10970 10973 10975 10976 10978 10978 10979 10980 10980 10980 10980 10980 10980 10979 10979 10979 10979 10980 10980 10981 10981 10982 10983 10984 10985 10986 10987 10988 10989 10989 10989 10989 10990 10991 10992 10993 10993
10904 10907 10912 10917 10922 10924 10925 10927 10931 10934 10937 10940 10943 10946 10948 10949 10950 10953 10958 10961 10961 10962 10964 10964 10964 10965 10967 10970 10973 10974 10975 10976 10977 10977 10978 10978 10978 10978 10978 10978 10978 10978 10978 10978 10979 10979 10980 10981 10982 10983 10983 10984 10984 10986 10987 10988 10989 10989 10989 10990 10990 10991 10992
10897 10900 10904 10909 10914 10918 10920 10922 10924 10928 10931 10934 10937 10939 10940 10940 10942 10946 10950 10952 10954 10957 10960 10960 10961 10964 10965 10967 10971 10971 10971 10972 10974 10974 10975 10975 10976 10976 10976 10976 10976 10976 10977 10977 10977 10977 10978 10980 10981 10981 10982 10982 10982 10983 10984 10985 10986 10988 10988 10988 10989 10989 10990
10890 10894 10898 10901 10906 10911 10914 10917 10919 10922 10925 10928 10931 10933 10933 10935 10937 10940 10943 10946 10948 10951 10954 10956 10958 10961 10963 10965 10968 10968 10968 10969 10971 10971 10971 10972 10973 10974 10974 10974 10974 10974 10974 10974 10974 10974 10976 10977 10978 10979 10980 10980 10981 10981 10982 10983 10984 10985 10986 10986 10987 10987 10987
10883 10888 10892 10894 10898 10902 10908 10912 10914 10916 10919 10922 10924 10926 10928 10931 10934 10935 10937 10940 10942 10944 10949 10953 10955 10958 10960 10962 10963 10964 10964 10965 10966 10965 10967 10969 10970 10971 10971 10972 10972 10972 10972 10972 10972 10972 10973 10974 10975 10976 10977 10978 10978 10979 10980 10981 10982 10983 10983 10984 10985 10986 10985
10876 10881 10885 10888 10892 10896 10901 10906 10908 10910 10912 10914 10917 10920 10923 10926 10929 10930 10931 10934 10937 10939 10945 10950 10952 10955 10956 10957 10957 10956 10955 10957 10958 10959 10961 10964 10966 10967 10968 10969 10969 10970 10970 10970 10970 10969 10970 10971 10972 10973 10974 10975 10975 10976 10978 10978 10979 10980 10981 10982 10983 10984 10984
10869 10873 10878 10882 10886 10890 10894 10898 10901 10903 10905 10908 10910 10913 10917 10920 10923 10925 10927 10929 10932 10935 10939 10943 10947 10950 10951 10951 10953 10952 10950 10950 10953 10954 10956 10958 10961 10963 10964 10965 10966 10966 10967 10967 10967 10967 10967 10968 10970 10970 10971 10972 10972 10973 10974 10975 10976 10977 10978 10979 10980 10981 10982
10861 10865 10870 10874 10879 10883 10887 10890 10894 10896 10898 10901 10903 10906 10910 10914 10916 10918 10921 10924 10927 10930 10932 10935 10938 10940 10942 10944 10947 10948 10946 10946 10948 10949 10950 10951 10954 10957 10959 10960 10961 10962 10963 10963 10964 10964 10964 10965 10966 10967 10968 10968 10968 10969 10971 10972 10973 10974 10975 10976 10977 10978 10978
10853 10857 10861 10867 10871 10875 10879 10882 10886 10890 10892 10894 10896 10899 10903 10906 10909 10911 10914 10918 10921 10924 10926 10928 10930 10931 10933 10936 10940 10943 10942 10943 10943 10944 10944 10945 10947 10950 10953 10954 10956 10957 10958 10959 10959 10960 10961 10962 10963 10964 10965 10965 10965 10967 10968 10970 10971 10972 10972 10973 10974 10975 10976
10846 10849 10854 10859 10863 10867 10870 10874 10879 10883 10885 10887 10889 10892 10895 10899 10902 10904 10907 10910 10913 10916 10919 10921 10923 10924 10926 10929 10933 10936 10936 10936 10937 10937 10938 10940 10941 10943 10946 10948 10950 10952 10953 10954 10955 10956 10957 10958 10959 10960 10961 10962 10964 10966 10966 10966 10968 10969 10969 10970 10971 10972 10973
10838 10842 10846 10850 10854 10859 10862 10866 10871 10875 10878 10881 10882 10884 10887 10890 10894 10897 10899 10902 10904 10907 10911 10914 10917 10918 10920 10922 10925 10928 10929 10929 10930 10931 10933 10935 10936 10938 10940 10942 10944 10946 10948 10949 10950 10951 10952 10954 10955 10956 10956 10958 10962 10963 10962 10963 10964 10965 10966 10967 10968 10969 10970
10830 10833 10837 10841 10845 10850 10854 10858 10862 10867 10871 10873 10874 10876 10878 10881 10884 10888 10891 10894 10896 10899 10903 10906 10910 10912 10913 10915 10917 10920 10922 10923 10925 10927 10929 10930 10932 10933 10935 10936 10937 10940 10942 10943 10945 10946 10948 10949 10951 10952 10953 10954 10956 10958 10958 10959 10960 10962 10963 10964 10965 10966 10967
10821 10824 10828 10832 10836 10841 10845 10849 10854 10858 10862 10865 10866 10868 10869 10872 10876 10881 10884 10886 10889 10893 10895 10898 10901 10904 10907 10909 10911 10913 10915 10917 10919 10922 10923 10924 10926 10928 10929 10929 10931 10933 10936 10938 10939 10940 10942 10944 10946 10947 10949 10950 10950 10952 10954 10956 10957 10958 10959 10961 10961 10962 10963
10813 10815 10819 10823 10827 10831 10836 10840 10845 10849 10853 10856 10859 10860 10861 10864 10869 10873 10876 10880 10883 10886 10888 10891 10894 10897 10901 10903 10905 10907 10909 10910 10913 10914 10915 10917 10920 10921 10922 10924 10925 10928 10930 10932 10933 10934 10936 10938 10940 10942 10944 10945 10945 10947 10949 10951 10952 10953 10954 10956 10957 10958 10959
10805 10808 10810 10814 10818 10822 10826 10831 10836 10840 10844 10847 10850 10851 10852 10857 10862 10865 10868 10872 10875 10879 10881 10884 10887 10891 10894 10896 10898 10900 10902 10904 10906 10907 10908 10911 10913 10914 10916 10918 10920 10922 10924 10925 10927 10929 10930 10932 10934 10936 10938 10939 10940 10941 10943 10945 10947 10948 10949 10951 10953 10954 10956
10798 10800 10802 10806 10809 10813 10817 10821 10826 10830 10834 10838 10840 10841 10844 10849 10852 10854 10857 10861 10865 10870 10873 10877 10880 10883 10886 10888 10891 10893 10895 10896 10898 10900 10901 10904 10906 10907 10909 10912 10913 10915 10917 10919 10921 10922 10924 10926 10928 10929 10931 10933 10934 10935 10937 10938 10940 10942 10943 10945 10947 10949 10951
10790 10792 10795 10797 10801 10804 10807 10812 10816 10820 10824 10827 10829 10831 10836 10840 10842 10844 10847 10852 10856 10860 10865 10869 10873 10876 10878 10880 10883 10885 10887 10889 10891 10892 10894 10896 10898 10899 10901 10903 10905 10907 10909 10911 10914 10915 10917 10919 10921 10922 10924 10926 10927 10928 10930 10931 10934 10936 10937 10939 10941 10943 10945
10781 10784 10787 10789 10792 10795 10798 10802 10807 10811 10814 10816 10819 10823 10828 10831 10833 10835 10838 10843 10846 10850 10855 10859 10864 10868 10871 10873 10875 10877 10879 10881 10882 10883 10886 10888 10890 10892 10894 10895 10897 10899 10901 10904 10907 10908 10910 10911 10913 10915 10917 10919 10920 10922 10923 10924 10926 10928 10930 10932 10934 10936 10937
10773 10775 10778 10781 10784 10786 10789 10793 10797 10801 10805 10806 10809 10814 10818 10820 10823 10826 10830 10833 10836 10839 10843 10849 10855 10860 10862 10864 10866 10868 10870 10872 10874 10875 10878 10880 10882 10884 10886 10888 10889 10890 10893 10896 10899 10901 10903 10904 10905 10907 10909 10911 10913 10914 10916 10917 10919 10920 10922 10924 10926 10928 10929
10765 10767 10770 10773 10776 10778 10781 10784 10787 10791 10795 10797 10799 10803 10806 10808 10811 10817 10821 10824 10826 10829 10833 10839 10846 10850 10851 10852 10855 10858 10860 10863 10865 10867 10870 10871 10873 10875 10877 10879 10881 10883 10884 10887 10890 10893 10895 10896 10897 10898 10900 10903 10905 10906 10908 10910 10911 10912 10914 10915 10917 10919 10920
10758 10759 10761 10764 10767 10770 10773 10775 10778 10782 10785 10788 10790 10794 10796 10797 10801 10807 10812 10815 10818 10820 10824 10829 10835 10839 10839 10841 10845 10848 10850 10853 10855 10858 10860 10863 10864 10866 10868 10870 10873 10875 10876 10878 10880 10883 10886 10888 10888 10889 10891 10893 10896 10898 10899 10901 10903 10904 10905 10906 10908 10909 10911
10750 10752 10753 10755 10758 10761 10764 10767 10770 10773 10776 10778 10781 10784 10786 10788 10791 10796 10801 10804 10807 10809 10812 10816 10822 10826 10829 10832 10835 10837 10840 10843 10845 10848 10851 10853 10855 10857 10859 10861 10864 10866 10868 10869 10871 10873 10875 10878 10880 10881 10881 10883 10885 10887 10889 10892 10893 10895 10896 10897 10898 10899 10901
10743 10744 10745 10747 10750 10753 10756 10759 10762 10764 10767 10770 10772 10775 10777 10779 10782 10785 10789 10792 10794 10797 10801 10805 10810 10814 10818 10822 10825 10827 10829 10832 10835 10837 10840 10843 10845 10847 10850 10852 10855 10857 10859 10860 10862 10863 10865 10867 10869 10871 10872 10873 10875 10876 10878 10880 10882 10884 10885 10886 10887 10889 10890
10735 10736 10738 10740 10743 10745 10748 10751 10754 10756 10758 10761 10763 10765 10768 10770 10772 10775 10778 10780 10783 10787 10791 10794 10798 10802 10806 10810 10814 10816 10818 10821 10824 10826 10829 10832 10835 10838 10840 10842 10845 10847 10849 10851 10852 10854 10855 10857 10859 10861 10862 10864 10865 10866 10867 10869 10870 10872 10874 10875 10877 10878 10879
10727 10729 10731 10733 10735 10738 10741 10743 10746 10748 10750 10752 10754 10756 10759 10761 10762 10764 10767 10770 10773 10776 10779 10782 10786 10790 10794 10798 10802 10805 10807 10809 10811 10814 10817 10820 10823 10826 10829 10832 10835 10837 10839 10841 10842 10844 10846 10847 10849 10851 10852 10854 10855 10856 10857 10858 10858 10860 10861 10862 10864 10866 10868
10720 10722 10724 10726 10728 10731 10733 10736 10738 10740 10742 10744 10746 10748 10749 10751 10753 10755 10757 10759 10762 10765 10767 10770 10774 10777 10781 10785 10789 10792 10795 10797 10799 10801 10804 10807 10810 10814 10817 10820 10823 10826 10828 10830 10832 10833 10835 10837 10839 10840 10842 10843 10844 10845 10846 10847 10848 10849 10850 10850 10851 10853 10855
10714 10715 10717 10719 10721 10723 10726 10728 10730 10732 10734 10736 10738 10740 10741 10742 10743 10745 10746 10748 10751 10754 10756 10759 10762 10765 10768 10772 10776 10779 10783 10786 10788 10790 10791 10794 10797 10801 10805 10808 10810 10813 10816 10819 10821 10822 10824 10826 10828 10829 10830 10832 10832 10834 10835 10836 10837 10838 10839 10839 10840 10840 10841
10708 10709 10711 10713 10715 10717 10719 10721 10723 10725 10727 10728 10730 10732 10733 10734 10735 10735 10736 10738 10741 10743 10746 10748 10750 10753 10756 10760 10763 10767 10770 10773 10775 10778 10780 10782 10785 10789 10792 10795 10798 10800 10802 10805 10808 10810 10812 10814 10816 10817 10818 10819 10820 10822 10824 10825 10826 10826 10827 10828 10828 10829 10829